Regional Weather Roundup
Issued by NWS Jackson, KY

Home | Current Version | Previous Version | Text Only | Print | Product List | Glossary On
Versions: 1 2 3 4 5 6 7 8 9 10 11 12 13 14 15 16 17 18 19 20 21 22 23 24 25 26 27 28 29 30 31 32 33 34 35 36 37 38 39 40 41 42 43 44 45 46 47 48 49 50
000
ASUS43 KJKL 291410
RWRJKL

EAST KENTUCKY HOURLY WEATHER ROUNDUP
NATIONAL WEATHER SERVICE JACKSON KY
1000 AM EDT MON AUG 29 2016

NOTE: "FAIR" INDICATES FEW OR NO CLOUDS BELOW 12,000 FEET WITH
NO SIGNIFICANT WEATHER AND/OR OBSTRUCTIONS TO VISIBILITY.

* THESE REPORTS ARE NOT UNDER NWS QUALITY CONTROL AND MAY NOT
  REPORT WEATHER SUCH AS PRECIPITATION AND FOG.

KYZ079-080-083-085-087-088-110-112-115-119-120-291500
...EASTERN KENTUCKY...

CITY           SKY/WX    TMP DP  RH WIND       PRES   REMARKS
JACKSON        SUNNY     75  69  81 CALM      30.23R
LONDON         SUNNY     78  69  73 VRB3      30.22R
SOMERSET*      SUNNY     75  72  88 CALM      30.23R
MONTICELLO*    CLOUDY   N/A N/A N/A VRB6      30.23R
WILLIAMSBURG*  SUNNY     75  72  88 SE3       30.22S
MIDDLESBORO*   MOSUNNY   72  70  94 CALM      30.23S
HARLAN APT*    SUNNY     75  68  78 CALM      30.24S
PIKE CO APT*     N/A     74  71  89 CALM      30.24R
BIG SANDY APT* SUNNY     77  71  83 SE3       30.24R
MOREHEAD APT*  CLOUDY    77  70  78 E3        30.24S
$$

KYZ035-036-041-042-044-050-067-078-099-291500
...CENTRAL KENTUCKY...

CITY           SKY/WX    TMP DP  RH WIND       PRES   REMARKS
MT STERLING*   SUNNY     77  70  78 E5        30.24R
FLEMING/MASON* SUNNY     77  70  79 NE6       30.24R
DANVILLE*      SUNNY     75  68  78 E5        30.23S
LEXINGTON      SUNNY     79  69  71 N5        30.23R
FRANKFORT      SUNNY     77  68  73 VRB3      30.22R
LOUISVILLE     MOSUNNY   79  68  69 VRB3      30.21S
LEBANON*         N/A     77  70  78 N3        30.22R
GLASGOW*       MOSUNNY   76  71  83 E5        30.20S
BOWLING GREEN  SUNNY     78  71  79 E7        30.20R
$$

KYZ091>093-OHZ055-061-077-WVZ005-015-034-035-042-291500
...SOUTHERN OHIO/WEST VIRGINIA...

CITY           SKY/WX    TMP DP  RH WIND       PRES   REMARKS
COVINGTON      MOSUNNY   77  70  79 NE7       30.24R
COLUMBUS       MOSUNNY   77  70  79 E8        30.24R
DAYTON         MOSUNNY   77  70  79 NE7       30.26S
WILMINGTON     SUNNY     77  71  82 NE8       30.24S
HUNTINGTON     SUNNY     80  71  74 NE5       30.21S
CHARLESTON     PTSUNNY   72  70  93 CALM      30.22S
PINEVILLE*     SUNNY     78  65  62 MISG      30.30S
BECKLEY        SUNNY     76  62  62 CALM      30.29S
BLUEFIELD      SUNNY     71  63  75 CALM      30.32R
LOGAN CO APT*    N/A     75  70  83 CALM      30.24S
$$

VAZ002-007-008-TNZ017-027-036-066-071-291500
...SOUTHWEST VIRGINIA/EAST TENNESSEE...

CITY           SKY/WX    TMP DP  RH WIND       PRES   REMARKS
WISE*          SUNNY     77  54  44 CALM      30.31R
JONESVILLE*      N/A     77  68  73 CALM      30.25S
ABINGDON*      SUNNY     78  66  67 SE5       30.27R
BRISTOL        MOSUNNY   74  66  76 SE5       30.24R
MORRISTOWN*    SUNNY     79  66  65 E7        30.21R
SEVIERVILLE*   MOSUNNY   72  66  83 CALM      30.20R
KNOXVILLE      MOSUNNY   77  68  73 E3        30.19R
OAK RIDGE      SUNNY     78  70  76 E6        30.21
CROSSVILLE     SUNNY     77  68  73 VRB3      30.24S
NASHVILLE      MOSUNNY   80  70  71 NE3       30.18R
$$

...KEY TO REMARKS...
VSB - VISIBILITY IN MILES
WCI - WIND CHILL INDEX
HX  - HEAT INDEX

$$



USA.gov is the U.S. government's official web portal to all federal, state and local government web resources and services.